Jackson, KY

7:49 AM EDT on May 26, 2017 (GMT -0400)
Carroll

Weather History for KJKL - July, 2013

Change the Weather History Date:

Wednesday, July 31, 2013

  Actual Average Record
Temperature  
Mean Temperature 68 °F 75 °F  
Max Temperature 72 °F 84 °F 97 °F (1999)
Min Temperature 64 °F 66 °F 59 °F (1993)
Degree Days  
Heating Degree Days 0 0  
Month to date heating degree days 0 0  
Since 1 June heating degree days 0 12  
Since 1 July heating degree days 0 0  
Cooling Degree Days 3 10  
Month to date cooling degree days 273 316  
Year to date cooling degree days 645 675  
Since 1 June cooling degree days 497 544  
Growing Degree Days 18 (Base 50)    
Moisture  
Dew Point 65 °F    
Average Humidity 92    
Maximum Humidity 100    
Minimum Humidity 84    
Precipitation  
Precipitation 0.05 in 0.15 in 1.72 in (1996)
Month to date precipitation 6.62 4.65  
Year to date precipitation 33.18 29.86  
Snow  
Snow 0.00 in 0.00 in - ()
Month to date snowfall 0.0 0.0  
Since 1 June snowfall 0.0 0.0  
Since 1 July snowfall 0.0 0.0  
Snow Depth 0.00 in    
Sea Level Pressure  
Sea Level Pressure 30.06 in    
Wind  
Wind Speed 0 mph (SE)    
Max Wind Speed 6 mph    
Max Gust Speed 9 mph    
Visibility 5 miles    
Events Fog , Rain    
T = Trace of Precipitation, MM = Missing Value Source: NWS Daily Summary

Daily Weather History Graph

Daily Weather History Graph

Search for Another Location

Airport or City:

Trip Planner

Search our weather history database for the weather conditions in past years. The results will help you decide how hot, cold, wet, or windy it might be!

Date:

Astronomy

Jul. 31, 2013 Rise Set
Actual Time 6:36 AM EDT 8:42 PM EDT
Civil Twilight 6:07 AM EDT 9:11 PM EDT
Nautical Twilight 5:31 AM EDT 9:46 PM EDT
Astronomical Twilight 4:53 AM EDT 10:24 PM EDT
Moon 1:31 AM EDT (7/31) 3:57 PM EDT (7/31)
Length of Visible Light 15h 03m
Length of Day
14h 05m
Waning Crescent, 32% of the Moon is Illuminated
Jul 31
Waning Crescent
Aug 6
New
Aug 14
First Quarter
Aug 20
Full
Aug 28
Last Quarter

Hourly Weather History & Observations

Time (EDT) Temp. Dew Point Humidity Pressure Visibility Wind Dir Wind Speed Gust Speed Precip Events Conditions
12:53 AM 66.9 °F 64.0 °F 90% 30.16 in 10.0 mi Calm Calm - 0.00 in Rain Light Rain
1:53 AM 66.0 °F 64.0 °F 93% 30.16 in 9.0 mi Calm Calm - 0.01 in Rain Light Rain
3:53 AM 64.9 °F 63.0 °F 93% 30.13 in 9.0 mi Calm Calm - 0.02 in Rain Light Rain
4:26 AM 64.4 °F 62.6 °F 94% 30.15 in 2.0 mi Calm Calm - 0.00 in   Overcast
4:35 AM 64.4 °F 62.6 °F 94% 30.15 in 10.0 mi Calm Calm - 0.00 in Rain Light Rain
4:53 AM 64.0 °F 62.1 °F 93% 30.12 in 10.0 mi Calm Calm - 0.00 in Rain Light Rain
5:53 AM 64.0 °F 63.0 °F 96% 30.13 in 5.0 mi Calm Calm - 0.01 in Rain Light Rain
6:53 AM 64.0 °F 62.1 °F 93% 30.14 in 9.0 mi Calm Calm - 0.00 in   Overcast
7:19 AM 64.4 °F 62.6 °F 94% 30.16 in 1.5 mi Calm Calm - 0.00 in Rain Light Rain
7:31 AM 64.4 °F 62.6 °F 94% 30.16 in 3.0 mi Calm Calm - 0.00 in Rain Light Rain
7:43 AM 64.4 °F 62.6 °F 94% 30.16 in 7.0 mi Calm Calm - 0.00 in   Overcast
7:51 AM 64.4 °F 62.6 °F 94% 30.16 in 8.0 mi SE 3.5 mph - 0.00 in   Overcast
7:53 AM 64.0 °F 62.1 °F 93% 30.13 in 8.0 mi Calm Calm - 0.00 in   Overcast
8:53 AM 64.0 °F 62.1 °F 93% 30.11 in 9.0 mi Calm Calm - 0.00 in   Overcast
9:11 AM 64.4 °F 62.6 °F 94% 30.14 in 10.0 mi ESE 3.5 mph - N/A   Overcast
9:29 AM 64.4 °F 62.6 °F 94% 30.14 in 9.0 mi SE 3.5 mph - N/A   Overcast
9:37 AM 64.4 °F 62.6 °F 94% 30.13 in 10.0 mi SE 3.5 mph - N/A   Overcast
9:53 AM 64.9 °F 63.0 °F 93% 30.10 in 10.0 mi Calm Calm - N/A   Overcast
10:17 AM 64.4 °F 62.6 °F 94% 30.13 in 10.0 mi Calm Calm - N/A   Overcast
10:53 AM 64.9 °F 63.0 °F 93% 30.10 in 10.0 mi Calm Calm - N/A   Overcast
11:09 AM 66.2 °F 62.6 °F 88% 30.13 in 10.0 mi Calm Calm - N/A   Overcast
11:25 AM 66.2 °F 64.4 °F 94% 30.12 in 10.0 mi Calm Calm - N/A   Overcast
11:53 AM 66.9 °F 64.0 °F 90% 30.09 in 10.0 mi Calm Calm - N/A   Overcast
12:13 PM 66.2 °F 64.4 °F 94% 30.12 in 10.0 mi Calm Calm - N/A   Overcast
12:53 PM 66.9 °F 64.9 °F 93% 30.08 in 9.0 mi Calm Calm - N/A   Overcast
1:22 PM 66.2 °F 64.4 °F 94% 30.10 in 10.0 mi Calm Calm - N/A   Overcast
1:37 PM 66.2 °F 64.4 °F 94% 30.10 in 7.0 mi Variable 3.5 mph - N/A   Overcast
1:53 PM 68.0 °F 64.9 °F 90% 30.06 in 10.0 mi Variable 3.5 mph - N/A   Overcast
2:53 PM 71.1 °F 66.0 °F 84% 30.04 in 10.0 mi Calm Calm - N/A   Overcast
3:51 PM 69.8 °F 64.4 °F 83% 30.06 in 10.0 mi Calm Calm - N/A   Overcast
3:53 PM 70.0 °F 64.9 °F 84% 30.03 in 10.0 mi Calm Calm - N/A   Overcast
4:18 PM 69.8 °F 66.2 °F 88% 30.05 in 10.0 mi Variable 3.5 mph - N/A   Overcast
4:42 PM 69.8 °F 64.4 °F 83% 30.05 in 10.0 mi Calm Calm - N/A   Overcast
4:53 PM 69.1 °F 64.9 °F 87% 30.02 in 10.0 mi Calm Calm - N/A   Overcast
5:15 PM 68.0 °F 66.2 °F 94% 30.04 in 3.0 mi Calm Calm - N/A   Overcast
5:22 PM 68.0 °F 66.2 °F 94% 30.04 in 2.5 mi Calm Calm - N/A   Overcast
5:53 PM 68.0 °F 66.0 °F 93% 30.01 in 2.5 mi Calm Calm - N/A   Overcast
6:00 PM 68.0 °F 66.2 °F 94% 30.03 in 3.0 mi Calm Calm - N/A   Overcast
6:12 PM 68.0 °F 66.2 °F 94% 30.03 in 2.5 mi Calm Calm - N/A   Overcast
6:20 PM 68.0 °F 66.2 °F 94% 30.02 in 3.0 mi Calm Calm - N/A   Overcast
6:45 PM 66.2 °F 66.2 °F 100% 30.01 in 2.5 mi Calm Calm - N/A   Overcast
6:53 PM 66.9 °F 66.0 °F 97% 29.99 in 2.5 mi Calm Calm - N/A   Overcast
6:59 PM 66.2 °F 66.2 °F 100% 30.01 in 1.8 mi Calm Calm - N/A   Overcast
7:03 PM 66.2 °F 66.2 °F 100% 30.01 in 1.5 mi Calm Calm - N/A   Overcast
7:31 PM 66.2 °F 66.2 °F 100% 30.01 in 2.0 mi Calm Calm - N/A   Overcast
7:43 PM 66.2 °F 66.2 °F 100% 30.01 in 3.0 mi Calm Calm - N/A   Overcast
7:53 PM 66.9 °F 66.0 °F 97% 29.99 in 2.5 mi Calm Calm - N/A   Overcast
8:04 PM 68.0 °F 66.2 °F 94% 30.01 in 4.0 mi Calm Calm - N/A   Overcast
8:20 PM 66.2 °F 66.2 °F 100% 30.01 in 3.0 mi Calm Calm - N/A   Overcast
8:29 PM 66.2 °F 66.2 °F 100% 30.01 in 2.0 mi Calm Calm - N/A   Overcast
8:45 PM 66.2 °F 66.2 °F 100% 30.02 in 1.8 mi Calm Calm - N/A   Overcast
8:53 PM 66.9 °F 66.0 °F 97% 29.99 in 0.8 mi Calm Calm - N/A   Overcast
9:05 PM 66.2 °F 66.2 °F 100% 30.03 in 1.5 mi Calm Calm - N/A   Overcast
9:08 PM 66.2 °F 66.2 °F 100% 30.03 in 2.0 mi Calm Calm - N/A   Overcast
9:16 PM 66.2 °F 66.2 °F 100% 30.02 in 3.0 mi Calm Calm - N/A   Overcast
9:53 PM 66.9 °F 66.0 °F 97% 30.00 in 4.0 mi Calm Calm - N/A   Overcast
10:16 PM 66.2 °F 66.2 °F 100% 30.03 in 1.8 mi Calm Calm - N/A   Overcast
10:25 PM 66.2 °F 66.2 °F 100% 30.03 in 1.2 mi Calm Calm - N/A   Overcast
10:33 PM 66.2 °F 66.2 °F 100% 30.03 in 2.0 mi Calm Calm - N/A   Overcast
10:42 PM 66.2 °F 66.2 °F 100% 30.03 in 4.0 mi Calm Calm - N/A   Overcast
10:50 PM 66.2 °F 66.2 °F 100% 30.02 in 4.0 mi Calm Calm - N/A   Overcast
10:53 PM 66.9 °F 66.0 °F 97% 29.99 in 4.0 mi Calm Calm - N/A   Overcast
10:59 PM 66.2 °F 66.2 °F 100% 30.02 in 2.0 mi Calm Calm - N/A   Overcast
11:01 PM 66.2 °F 66.2 °F 100% 30.02 in 1.5 mi Calm Calm - N/A   Overcast
11:06 PM 66.2 °F 66.2 °F 100% 30.02 in 0.8 mi Calm Calm - N/A   Overcast
11:17 PM 66.2 °F 66.2 °F 100% 30.02 in 1.8 mi Calm Calm - N/A   Overcast
11:21 PM 66.2 °F 66.2 °F 100% 30.02 in 3.0 mi Calm Calm - N/A   Overcast
11:26 PM 66.2 °F 66.2 °F 100% 30.01 in 2.5 mi Calm Calm - N/A   Overcast
11:29 PM 66.2 °F 66.2 °F 100% 30.01 in 1.5 mi Calm Calm - N/A   Overcast
11:41 PM 66.2 °F 66.2 °F 100% 30.01 in 0.8 mi Calm Calm - N/A   Overcast
11:53 PM 66.9 °F 66.0 °F 97% 29.98 in 0.5 mi Calm Calm - N/A Fog Fog